Location: Houhaj�rvi
(61.2833°N, 23.0000°E)
Time: 06:13:36
(UTC+00:00)

Cosmos 2219 - Pass Details

Date: 27 February 2020
Orbit: 832 x 862 km, 71.1° (Epoch: 27 March)

Event Time Altitude Azimuth Distance (km) Brightness Sun altitude
Rises 16:55:16 0° 316° (NW) 3,438 7.1 -9.1°
Reaches altitude 10° 16:57:44 10° 318° (NW) 2,503 6.3 -9.4°
Maximum altitude 17:03:30 77° 44° (NE) 890 3.2 -10.0°
Drops below altitude 10° 17:09:16 10° 132° (SE) 2,502 5.2 -10.7°
Enters shadow 17:10:21 - 133° (SE) 2,910 5.5 -10.9°
